| time (UTC) | temp C | wind direction | speed KPH | gust KPH | rain 1hr cm | rain 24hr cm | rain mn cm | humidity % | barometer mb |
| 20260507142248 | 6 | 105 | 0.0 | 1.6 | 0.00 | 0.00 | 0.00 | 64 | 1015.5 |
| 20260507141744 | 6 | 284 | 3.2 | 4.8 | 0.00 | 0.00 | 0.00 | 62 | 1015.6 |
| 20260507141242 | 6 | 241 | 1.6 | 1.6 | 0.00 | 0.00 | 0.00 | 64 | 1015.5 |
| 20260507140737 | 6 | 205 | 3.2 | 3.2 | 0.00 | 0.00 | 0.00 | 64 | 1015.4 |
| 20260507140235 | 6 | 229 | 3.2 | 6.4 | 0.00 | 0.00 | 0.00 | 63 | 1015.3 |
| 20260507135732 | 7 | 219 | 6.4 | 6.4 | 0.00 | 0.00 | 0.00 | 60 | 1015.3 |
| 20260507135230 | 6 | 202 | 0.0 | 4.8 | 0.00 | 0.00 | 0.00 | 60 | 1015.2 |
| 20260507134725 | 7 | 263 | 3.2 | 4.8 | 0.00 | 0.00 | 0.00 | 61 | 1015.2 |
| 20260507134222 | 7 | 309 | 1.6 | 4.8 | 0.00 | 0.00 | 0.00 | 59 | 1015.2 |
| 20260507133718 | 7 | 134 | 3.2 | 4.8 | 0.00 | 0.00 | 0.00 | 61 | 1015.3 |
| 20260507133215 | 6 | 52 | 3.2 | 9.7 | 0.00 | 0.00 | 0.00 | 63 | 1015.1 |
| 20260507132713 | 6 | 128 | 8.0 | 11.3 | 0.00 | 0.00 | 0.00 | 64 | 1015.3 |
| 20260507132209 | 6 | 135 | 6.4 | 6.4 | 0.00 | 0.00 | 0.00 | 63 | 1014.8 |
| 20260507131706 | 6 | 121 | 3.2 | 6.4 | 0.00 | 0.00 | 0.00 | 64 | 1015.2 |
| 20260507131203 | 5 | 349 | 6.4 | 12.9 | 0.00 | 0.00 | 0.00 | 66 | 1015.3 |
| 20260507130700 | 5 | 88 | 4.8 | 11.3 | 0.00 | 0.00 | 0.00 | 66 | 1015.0 |
| 20260507130157 | 5 | 133 | 14.5 | 17.7 | 0.00 | 0.00 | 0.00 | 67 | 1015.2 |
| 20260507125656 | 5 | 119 | 12.9 | 16.1 | 0.00 | 0.00 | 0.00 | 65 | 1015.2 |
| 20260507125153 | 6 | 43 | 6.4 | 12.9 | 0.00 | 0.00 | 0.00 | 64 | 1015.1 |
| 20260507124649 | 6 | 354 | 8.0 | 12.9 | 0.00 | 0.00 | 0.00 | 63 | 1015.1 |
| 20260507124147 | 5 | 178 | 6.4 | 20.9 | 0.00 | 0.00 | 0.00 | 65 | 1014.8 |
| 20260507123645 | 5 | 207 | 6.4 | 16.1 | 0.00 | 0.00 | 0.00 | 64 | 1014.9 |
| 20260507123142 | 6 | 73 | 3.2 | 6.4 | 0.00 | 0.00 | 0.00 | 63 | 1014.9 |
| 20260507122637 | 6 | 328 | 4.8 | 6.4 | 0.00 | 0.00 | 0.00 | 66 | 1014.6 |
| 20260507122133 | 6 | 144 | 6.4 | 12.9 | 0.00 | 0.00 | 0.00 | 65 | 1014.6 |
| 20260507121629 | 6 | 211 | 9.7 | 14.5 | 0.00 | 0.00 | 0.00 | 65 | 1014.8 |
| 20260507121125 | 6 | 210 | 3.2 | 11.3 | 0.00 | 0.00 | 0.00 | 67 | 1014.8 |
| 20260507120622 | 6 | 257 | 4.8 | 9.7 | 0.00 | 0.00 | 0.00 | 66 | 1014.4 |
| 20260507120118 | 6 | 277 | 6.4 | 12.9 | 0.00 | 0.00 | 0.00 | 67 | 1014.4 |
| 20260507115615 | 6 | 285 | 8.0 | 11.3 | 0.00 | 0.00 | 0.00 | 65 | 1014.4 |
| 20260507115111 | 6 | 292 | 4.8 | 6.4 | 0.00 | 0.00 | 0.00 | 66 | 1014.4 |
| 20260507114607 | 6 | 292 | 4.8 | 9.7 | 0.00 | 0.00 | 0.00 | 65 | 1014.4 |
| 20260507114104 | 6 | 239 | 4.8 | 6.4 | 0.00 | 0.00 | 0.00 | 65 | 1014.5 |
| 20260507113601 | 6 | 268 | 11.3 | 16.1 | 0.00 | 0.00 | 0.00 | 65 | 1014.1 |
| 20260507113058 | 6 | 7 | 3.2 | 16.1 | 0.00 | 0.00 | 0.00 | 60 | 1014.3 |
| 20260507112556 | 6 | 179 | 9.7 | 16.1 | 0.00 | 0.00 | 0.00 | 58 | 1014.3 |
| 20260507112053 | 6 | 61 | 6.4 | 14.5 | 0.00 | 0.00 | 0.00 | 58 | 1014.2 |
| 20260507111549 | 6 | 240 | 3.2 | 14.5 | 0.00 | 0.00 | 0.00 | 59 | 1013.9 |
| 20260507111046 | 6 | 249 | 3.2 | 11.3 | 0.00 | 0.00 | 0.00 | 65 | 1013.8 |
| 20260507110543 | 6 | 195 | 3.2 | 6.4 | 0.00 | 0.00 | 0.00 | 63 | 1013.8 |
| 20260507110039 | 6 | 278 | 0.0 | 9.7 | 0.00 | 0.00 | 0.00 | 67 | 1014.0 |
| 20260507105536 | 6 | 261 | 4.8 | 4.8 | 0.00 | 0.00 | 0.00 | 67 | 1013.8 |
| 20260507105032 | 6 | 289 | 3.2 | 4.8 | 0.00 | 0.00 | 0.00 | 71 | 1013.8 |
| 20260507104530 | 6 | 298 | 4.8 | 6.4 | 0.00 | 0.00 | 0.00 | 73 | 1013.8 |
| 20260507104026 | 5 | 269 | 4.8 | 6.4 | 0.00 | 0.00 | 0.00 | 72 | 1013.7 |
| 20260507103522 | 5 | 309 | 6.4 | 9.7 | 0.00 | 0.00 | 0.00 | 72 | 1013.7 |
| 20260507103019 | 5 | 300 | 9.7 | 14.5 | 0.00 | 0.00 | 0.00 | 70 | 1013.6 |
| 20260507102516 | 5 | 291 | 9.7 | 16.1 | 0.00 | 0.00 | 0.00 | 69 | 1013.5 |
| 20260507102012 | 5 | 274 | 3.2 | 9.7 | 0.00 | 0.00 | 0.00 | 72 | 1013.7 |
| 20260507101507 | 6 | 283 | 4.8 | 9.7 | 0.00 | 0.00 | 0.00 | 70 | 1013.7 |
| 20260507101004 | 6 | 257 | 4.8 | 9.7 | 0.00 | 0.00 | 0.00 | 71 | 1013.6 |
| 20260507100501 | 6 | 264 | 3.2 | 14.5 | 0.00 | 0.00 | 0.00 | 71 | 1013.6 |
| 20260507095959 | 6 | 262 | 3.2 | 4.8 | 0.00 | 0.00 | 0.00 | 72 | 1013.6 |
| 20260507095457 | 6 | 263 | 3.2 | 4.8 | 0.00 | 0.00 | 0.00 | 73 | 1013.6 |
| 20260507094953 | 5 | 284 | 6.4 | 11.3 | 0.00 | 0.00 | 0.00 | 75 | 1013.3 |
| 20260507094449 | 5 | 292 | 6.4 | 9.7 | 0.00 | 0.00 | 0.00 | 74 | 1013.3 |
| 20260507093947 | 5 | 308 | 3.2 | 11.3 | 0.00 | 0.00 | 0.00 | 73 | 1013.3 |
| 20260507093444 | 6 | 247 | 3.2 | 12.9 | 0.00 | 0.00 | 0.00 | 70 | 1013.4 |
| 20260507092943 | 5 | 233 | 3.2 | 4.8 | 0.00 | 0.00 | 0.00 | 66 | 1013.3 |
| 20260507092438 | 5 | 249 | 4.8 | 11.3 | 0.00 | 0.00 | 0.00 | 68 | 1013.2 |
| 20260507091935 | 6 | 192 | 6.4 | 9.7 | 0.00 | 0.00 | 0.00 | 59 | 1013.2 |
| 20260507091432 | 6 | 281 | 8.0 | 16.1 | 0.00 | 0.00 | 0.00 | 58 | 1013.2 |
| 20260507090928 | 6 | 199 | 6.4 | 11.3 | 0.00 | 0.00 | 0.00 | 58 | 1013.0 |
| 20260507090424 | 6 | 80 | 4.8 | 20.9 | 0.00 | 0.00 | 0.00 | 57 | 1013.2 |
| 20260507085921 | 6 | 191 | 4.8 | 9.7 | 0.00 | 0.00 | 0.00 | 55 | 1012.9 |
| 20260507085418 | 6 | 217 | 1.6 | 3.2 | 0.00 | 0.00 | 0.00 | 58 | 1013.0 |
| 20260507084915 | 6 | 144 | 0.0 | 3.2 | 0.00 | 0.00 | 0.00 | 55 | 1012.9 |
| 20260507084412 | 6 | 239 | 8.0 | 11.3 | 0.00 | 0.00 | 0.00 | 55 | 1012.9 |
| 20260507083909 | 6 | 269 | 6.4 | 9.7 | 0.00 | 0.00 | 0.00 | 59 | 1012.8 |
| 20260507083405 | 6 | 303 | 3.2 | 6.4 | 0.00 | 0.00 | 0.00 | 58 | 1012.9 |
| 20260507082901 | 6 | 247 | 1.6 | 3.2 | 0.00 | 0.00 | 0.00 | 62 | 1012.8 |
| 20260507082357 | 5 | 265 | 4.8 | 9.7 | 0.00 | 0.00 | 0.00 | 66 | 1012.8 |
| 20260507081855 | 6 | 258 | 4.8 | 6.4 | 0.00 | 0.00 | 0.00 | 62 | 1012.8 |
| 20260507081350 | 6 | 261 | 1.6 | 4.8 | 0.00 | 0.00 | 0.00 | 63 | 1012.6 |
| 20260507080848 | 5 | 268 | 1.6 | 4.8 | 0.00 | 0.00 | 0.00 | 64 | 1012.7 |
| 20260507080343 | 6 | 231 | 1.6 | 4.8 | 0.00 | 0.00 | 0.00 | 59 | 1012.6 |
| 20260507075839 | 6 | 268 | 6.4 | 12.9 | 0.00 | 0.00 | 0.00 | 57 | 1012.8 |
| 20260507075335 | 6 | 241 | 4.8 | 6.4 | 0.00 | 0.00 | 0.00 | 57 | 1012.6 |
| 20260507074832 | 6 | 224 | 8.0 | 14.5 | 0.00 | 0.00 | 0.00 | 59 | 1012.7 |
| 20260507074329 | 6 | 225 | 4.8 | 12.9 | 0.00 | 0.00 | 0.00 | 58 | 1012.5 |
| 20260507073826 | 6 | 207 | 6.4 | 11.3 | 0.00 | 0.00 | 0.00 | 59 | 1012.5 |
| 20260507073323 | 6 | 45 | 3.2 | 9.7 | 0.00 | 0.00 | 0.00 | 57 | 1012.4 |
| 20260507072820 | 6 | 156 | 6.4 | 11.3 | 0.00 | 0.00 | 0.00 | 57 | 1012.4 |
| 20260507072318 | 6 | 138 | 0.0 | 6.4 | 0.00 | 0.00 | 0.00 | 59 | 1012.3 |
| 20260507071815 | 6 | 258 | 6.4 | 17.7 | 0.00 | 0.00 | 0.00 | 57 | 1012.4 |
| 20260507071312 | 7 | 271 | 8.0 | 12.9 | 0.00 | 0.00 | 0.00 | 56 | 1012.5 |
| 20260507070808 | 7 | 223 | 4.8 | 6.4 | 0.00 | 0.00 | 0.00 | 57 | 1012.1 |
| 20260507070306 | 6 | 255 | 3.2 | 4.8 | 0.00 | 0.00 | 0.00 | 57 | 1012.2 |
| 20260507065802 | 6 | 352 | 0.0 | 4.8 | 0.00 | 0.00 | 0.00 | 59 | 1012.4 |
| 20260507065259 | 5 | 195 | 0.0 | 6.4 | 0.00 | 0.00 | 0.00 | 60 | 1012.2 |
| 20260507064756 | 5 | 130 | 3.2 | 6.4 | 0.00 | 0.00 | 0.00 | 59 | 1012.1 |
| 20260507064255 | 5 | 122 | 1.6 | 6.4 | 0.00 | 0.00 | 0.00 | 61 | 1012.0 |
| 20260507063752 | 6 | 83 | 4.8 | 6.4 | 0.00 | 0.00 | 0.00 | 61 | 1012.0 |
| 20260507063249 | 6 | 249 | 3.2 | 9.7 | 0.00 | 0.00 | 0.00 | 63 | 1011.9 |
| 20260507062746 | 5 | 264 | 1.6 | 9.7 | 0.00 | 0.00 | 0.00 | 65 | 1012.0 |
| 20260507062243 | 5 | 204 | 3.2 | 3.2 | 0.00 | 0.00 | 0.00 | 67 | 1012.1 |
| 20260507061741 | 5 | 245 | 1.6 | 4.8 | 0.00 | 0.00 | 0.00 | 68 | 1012.0 |
| 20260507061238 | 5 | 190 | 1.6 | 4.8 | 0.00 | 0.00 | 0.00 | 68 | 1012.1 |
| 20260507060736 | 4 | 112 | 3.2 | 6.4 | 0.00 | 0.00 | 0.00 | 68 | 1012.0 |
| 20260507060233 | 5 | 123 | 6.4 | 6.4 | 0.00 | 0.00 | 0.00 | 68 | 1012.1 |
| 20260507055729 | 4 | 101 | 0.0 | 11.3 | 0.00 | 0.00 | 0.00 | 69 | 1011.9 |
| 20260507055224 | 4 | 125 | 0.0 | 1.6 | 0.00 | 0.00 | 0.00 | 73 | 1011.9 |
| 20260507054720 | 4 | 139 | 3.2 | 4.8 | 0.00 | 0.00 | 0.00 | 70 | 1012.1 |
| 20260507054218 | 4 | 236 | 3.2 | 9.7 | 0.00 | 0.00 | 0.00 | 71 | 1011.9 |
| 20260507053715 | 4 | 280 | 1.6 | 3.2 | 0.00 | 0.00 | 0.00 | 73 | 1011.8 |
| 20260507053213 | 3 | 64 | 1.6 | 4.8 | 0.00 | 0.00 | 0.00 | 78 | 1011.7 |
| 20260507052712 | 3 | 79 | 0.0 | 0.0 | 0.00 | 0.00 | 0.00 | 80 | 1011.7 |
| 20260507052207 | 3 | 301 | 0.0 | 0.0 | 0.00 | 0.00 | 0.00 | 83 | 1011.8 |
| 20260507051706 | 3 | 301 | 0.0 | 0.0 | 0.00 | 0.00 | 0.00 | 82 | 1011.8 |
| 20260507051202 | 3 | 301 | 0.0 | 3.2 | 0.00 | 0.00 | 0.00 | 83 | 1011.7 |
| 20260507050659 | 3 | 0 | 0.0 | 0.0 | 0.00 | 0.00 | 0.00 | 84 | 1011.5 |
| 20260507050155 | 3 | 0 | 0.0 | 0.0 | 0.00 | 0.00 | 0.00 | 83 | 1011.6 |
| 20260507045652 | 3 | 0 | 0.0 | 1.6 | 0.00 | 0.00 | 0.00 | 85 | 1011.6 |
| 20260507045149 | 3 | 0 | 0.0 | 0.0 | 0.00 | 0.00 | 0.00 | 86 | 1011.5 |
| 20260507044646 | 2 | 0 | 0.0 | 0.0 | 0.00 | 0.00 | 0.00 | 87 | 1011.7 |
| 20260507044143 | 2 | 0 | 0.0 | 1.6 | 0.00 | 0.00 | 0.00 | 88 | 1011.5 |
| 20260507043638 | 2 | 25 | 1.6 | 3.2 | 0.00 | 0.00 | 0.00 | 88 | 1011.5 |
| 20260507043136 | 2 | 129 | 0.0 | 0.0 | 0.00 | 0.00 | 0.00 | 88 | 1011.5 |
| 20260507042632 | 2 | 129 | 0.0 | 0.0 | 0.00 | 0.00 | 0.00 | 88 | 1011.5 |
| 20260507042127 | 2 | 129 | 0.0 | 0.0 | 0.00 | 0.00 | 0.00 | 89 | 1011.7 |
| 20260507041624 | 2 | 130 | 0.0 | 1.6 | 0.00 | 0.00 | 0.00 | 89 | 1011.9 |
| 20260507041121 | 2 | 130 | 0.0 | 0.0 | 0.00 | 0.00 | 0.00 | 90 | 1011.6 |
| 20260507040618 | 2 | 130 | 0.0 | 0.0 | 0.00 | 0.00 | 0.00 | 90 | 1011.6 |
| 20260507040114 | 2 | 208 | 0.0 | 1.6 | 0.00 | 0.00 | 0.00 | 90 | 1011.6 |
| 20260507035610 | 2 | 309 | 0.0 | 1.6 | 0.00 | 0.00 | 0.00 | 91 | 1011.4 |
| 20260507035106 | 2 | 233 | 3.2 | 3.2 | 0.00 | 0.00 | 0.00 | 91 | 1011.6 |
| 20260507034603 | 2 | 78 | 1.6 | 4.8 | 0.00 | 0.00 | 0.00 | 91 | 1011.3 |
| 20260507034102 | 1 | 81 | 0.0 | 0.0 | 0.00 | 0.00 | 0.00 | 91 | 1011.5 |
| 20260507033600 | 1 | 84 | 0.0 | 0.0 | 0.00 | 0.00 | 0.00 | 91 | 1011.5 |
| 20260507033056 | 1 | 109 | 0.0 | 0.0 | 0.00 | 0.00 | 0.00 | 91 | 1011.3 |
| 20260507032554 | 1 | 109 | 0.0 | 0.0 | 0.00 | 0.00 | 0.00 | 91 | 1011.4 |
| 20260507032049 | 1 | 109 | 0.0 | 0.0 | 0.00 | 0.00 | 0.00 | 91 | 1011.4 |
| 20260507031546 | 1 | 109 | 0.0 | 0.0 | 0.00 | 0.00 | 0.00 | 91 | 1011.2 |
| 20260507031043 | 1 | 83 | 0.0 | 0.0 | 0.00 | 0.00 | 0.00 | 91 | 1011.4 |
| 20260507030540 | 1 | 71 | 0.0 | 0.0 | 0.00 | 0.00 | 0.00 | 91 | 1011.4 |
| 20260507030038 | 1 | 350 | 0.0 | 0.0 | 0.00 | 0.00 | 0.00 | 91 | 1011.4 |
| 20260507025535 | 1 | 58 | 0.0 | 0.0 | 0.00 | 0.00 | 0.00 | 91 | 1011.1 |
| 20260507025032 | 1 | 89 | 0.0 | 0.0 | 0.00 | 0.00 | 0.00 | 91 | 1011.3 |
| 20260507024530 | 1 | 3 | 0.0 | 1.6 | 0.00 | 0.00 | 0.00 | 91 | 1011.1 |
| 20260507024026 | 1 | 330 | 3.2 | 3.2 | 0.00 | 0.00 | 0.00 | 91 | 1011.1 |
| 20260507023522 | 1 | 303 | 0.0 | 0.0 | 0.00 | 0.00 | 0.00 | 91 | 1011.2 |
| 20260507023020 | 1 | 342 | 4.8 | 4.8 | 0.00 | 0.00 | 0.00 | 91 | 1011.3 |
| 20260507022516 | 1 | 2 | 1.6 | 3.2 | 0.00 | 0.00 | 0.00 | 91 | 1011.0 |
| 20260507022012 | 1 | 32 | 3.2 | 4.8 | 0.00 | 0.00 | 0.00 | 91 | 1011.2 |
| 20260507021508 | 1 | 347 | 0.0 | 0.0 | 0.00 | 0.00 | 0.00 | 91 | 1011.1 |
| 20260507021004 | 1 | 26 | 0.0 | 0.0 | 0.00 | 0.00 | 0.00 | 91 | 1011.2 |
| 20260507020501 | 1 | 33 | 1.6 | 1.6 | 0.00 | 0.00 | 0.00 | 91 | 1011.1 |
| 20260507015958 | 1 | 67 | 1.6 | 3.2 | 0.00 | 0.00 | 0.00 | 90 | 1011.1 |
| 20260507015457 | 1 | 59 | 0.0 | 3.2 | 0.00 | 0.00 | 0.00 | 90 | 1011.3 |
| 20260507014954 | 1 | 335 | 1.6 | 3.2 | 0.00 | 0.00 | 0.00 | 90 | 1011.1 |
| 20260507014450 | 1 | 357 | 3.2 | 4.8 | 0.00 | 0.00 | 0.00 | 89 | 1011.1 |
| 20260507013946 | 1 | 0 | 4.8 | 4.8 | 0.00 | 0.00 | 0.00 | 88 | 1011.2 |
| 20260507013443 | 1 | 358 | 6.4 | 6.4 | 0.00 | 0.00 | 0.00 | 87 | 1011.1 |
| 20260507012941 | 1 | 353 | 4.8 | 4.8 | 0.00 | 0.00 | 0.00 | 85 | 1011.0 |
| 20260507012437 | 1 | 31 | 0.0 | 0.0 | 0.00 | 0.00 | 0.00 | 84 | 1011.3 |
| 20260507011934 | 1 | 73 | 0.0 | 3.2 | 0.00 | 0.00 | 0.00 | 82 | 1011.0 |
| 20260507011431 | 1 | 58 | 1.6 | 3.2 | 0.00 | 0.00 | 0.00 | 82 | 1011.0 |
| 20260507010931 | 1 | 41 | 0.0 | 0.0 | 0.00 | 0.00 | 0.00 | 82 | 1010.9 |
| 20260507010427 | 1 | 60 | 0.0 | 1.6 | 0.00 | 0.00 | 0.00 | 82 | 1010.5 |
| 20260507005924 | 1 | 346 | 0.0 | 3.2 | 0.00 | 0.00 | 0.00 | 82 | 1010.9 |
| 20260507005421 | 1 | 58 | 1.6 | 3.2 | 0.00 | 0.00 | 0.00 | 81 | 1010.6 |
| 20260507004917 | 1 | 21 | 3.2 | 3.2 | 0.00 | 0.00 | 0.00 | 82 | 1010.6 |
| 20260507004414 | 1 | 332 | 0.0 | 0.0 | 0.00 | 0.00 | 0.00 | 83 | 1010.7 |
| 20260507003912 | 1 | 62 | 0.0 | 0.0 | 0.00 | 0.00 | 0.00 | 82 | 1010.7 |
| 20260507003407 | 1 | 34 | 1.6 | 4.8 | 0.00 | 0.00 | 0.00 | 82 | 1010.4 |
| 20260507002902 | 1 | 38 | 0.0 | 1.6 | 0.00 | 0.00 | 0.00 | 80 | 1010.5 |
| 20260507002358 | 1 | 29 | 1.6 | 3.2 | 0.00 | 0.00 | 0.00 | 81 | 1010.4 |
| 20260507001856 | 1 | 44 | 3.2 | 4.8 | 0.00 | 0.00 | 0.00 | 80 | 1010.4 |
| 20260507001352 | 1 | 22 | 4.8 | 4.8 | 0.00 | 0.00 | 0.00 | 80 | 1010.4 |
| 20260507000849 | 1 | 353 | 3.2 | 4.8 | 0.00 | 0.00 | 0.00 | 81 | 1010.3 |
| 20260507000344 | 1 | 2 | 1.6 | 3.2 | 0.00 | 0.00 | 0.00 | 81 | 1010.5 |
| 20260506235841 | 1 | 2 | 1.6 | 3.2 | 0.00 | 0.00 | 0.00 | 82 | 1010.3 |
| 20260506235338 | 1 | 346 | 3.2 | 4.8 | 0.00 | 0.00 | 0.00 | 82 | 1010.2 |
| 20260506234834 | 1 | 359 | 0.0 | 0.0 | 0.00 | 0.00 | 0.00 | 82 | 1010.3 |
| 20260506234332 | 1 | 0 | 0.0 | 0.0 | 0.00 | 0.00 | 0.00 | 82 | 1010.4 |
| 20260506233830 | 1 | 356 | 0.0 | 0.0 | 0.00 | 0.00 | 0.00 | 82 | 1010.2 |
| 20260506233325 | 1 | 48 | 0.0 | 1.6 | 0.00 | 0.00 | 0.00 | 81 | 1010.2 |
| 20260506232822 | 1 | 337 | 0.0 | 3.2 | 0.00 | 0.00 | 0.00 | 80 | 1010.2 |
| 20260506232318 | 1 | 357 | 3.2 | 4.8 | 0.00 | 0.00 | 0.00 | 81 | 1010.2 |
| 20260506231815 | 1 | 12 | 3.2 | 4.8 | 0.00 | 0.00 | 0.00 | 80 | 1010.2 |
| 20260506231313 | 1 | 2 | 1.6 | 3.2 | 0.00 | 0.00 | 0.00 | 81 | 1010.1 |
| 20260506230810 | 1 | 348 | 3.2 | 3.2 | 0.00 | 0.00 | 0.00 | 81 | 1010.0 |
| 20260506230306 | 1 | 343 | 3.2 | 3.2 | 0.00 | 0.00 | 0.00 | 81 | 1010.0 |
| 20260506225802 | 1 | 8 | 0.0 | 1.6 | 0.00 | 0.00 | 0.00 | 81 | 1010.0 |
| 20260506225300 | 1 | 334 | 3.2 | 3.2 | 0.00 | 0.00 | 0.00 | 81 | 1009.8 |
| 20260506224756 | 1 | 349 | 4.8 | 6.4 | 0.00 | 0.00 | 0.00 | 81 | 1009.9 |
| 20260506224254 | 1 | 6 | 4.8 | 4.8 | 0.00 | 0.00 | 0.00 | 82 | 1010.0 |
| 20260506223750 | 0 | 5 | 4.8 | 6.4 | 0.00 | 0.00 | 0.00 | 83 | 1009.9 |
| 20260506223245 | 0 | 23 | 4.8 | 4.8 | 0.00 | 0.00 | 0.00 | 83 | 1010.1 |
| 20260506222742 | 0 | 7 | 4.8 | 4.8 | 0.00 | 0.00 | 0.00 | 83 | 1010.1 |
| 20260506222238 | 0 | 354 | 3.2 | 4.8 | 0.00 | 0.00 | 0.00 | 82 | 1010.2 |
| 20260506221736 | 1 | 34 | 0.0 | 0.0 | 0.00 | 0.00 | 0.00 | 82 | 1010.1 |
| 20260506221234 | 0 | 44 | 0.0 | 1.6 | 0.00 | 0.00 | 0.00 | 83 | 1010.1 |
| 20260506220731 | 0 | 53 | 3.2 | 3.2 | 0.00 | 0.00 | 0.00 | 84 | 1010.1 |
| 20260506220232 | 0 | 39 | 3.2 | 3.2 | 0.00 | 0.00 | 0.00 | 84 | 1009.9 |
| 20260506215729 | 0 | 13 | 3.2 | 3.2 | 0.00 | 0.08 | 0.08 | 84 | 1010.0 |
| 20260506215224 | 0 | 344 | 3.2 | 3.2 | 0.00 | 0.08 | 0.08 | 84 | 1009.9 |
| 20260506214721 | 0 | 350 | 0.0 | 0.0 | 0.00 | 0.08 | 0.08 | 83 | 1009.7 |
| 20260506214218 | 0 | 340 | 3.2 | 4.8 | 0.00 | 0.08 | 0.08 | 83 | 1009.7 |
| 20260506213716 | 0 | 350 | 3.2 | 4.8 | 0.00 | 0.08 | 0.08 | 82 | 1009.7 |
| 20260506213213 | 1 | 26 | 6.4 | 6.4 | 0.00 | 0.08 | 0.08 | 81 | 1009.6 |
| 20260506212710 | 1 | 349 | 4.8 | 6.4 | 0.00 | 0.08 | 0.08 | 82 | 1009.9 |
| 20260506212206 | 1 | 18 | 1.6 | 4.8 | 0.00 | 0.08 | 0.08 | 81 | 1009.8 |
| 20260506211701 | 1 | 35 | 1.6 | 3.2 | 0.00 | 0.08 | 0.08 | 81 | 1009.8 |
| 20260506211158 | 1 | 70 | 1.6 | 3.2 | 0.00 | 0.08 | 0.08 | 82 | 1009.8 |
| 20260506210655 | 1 | 16 | 1.6 | 3.2 | 0.00 | 0.08 | 0.08 | 82 | 1009.7 |
| 20260506210152 | 1 | 348 | 3.2 | 3.2 | 0.00 | 0.08 | 0.08 | 82 | 1009.8 |
| 20260506205650 | 1 | 33 | 3.2 | 3.2 | 0.00 | 0.08 | 0.08 | 82 | 1009.8 |
| 20260506205149 | 1 | 1 | 3.2 | 6.4 | 0.00 | 0.08 | 0.08 | 82 | 1009.9 |
| 20260506204648 | 1 | 10 | 3.2 | 6.4 | 0.00 | 0.08 | 0.08 | 81 | 1009.8 |
| 20260506204144 | 1 | 3 | 3.2 | 4.8 | 0.00 | 0.08 | 0.08 | 80 | 1009.9 |
| 20260506203643 | 1 | 346 | 1.6 | 3.2 | 0.00 | 0.08 | 0.08 | 81 | 1009.8 |
| 20260506203139 | 1 | 25 | 3.2 | 4.8 | 0.00 | 0.08 | 0.08 | 82 | 1009.5 |
| 20260506202637 | 1 | 60 | 3.2 | 3.2 | 0.00 | 0.08 | 0.08 | 81 | 1009.6 |
| 20260506202133 | 1 | 62 | 3.2 | 4.8 | 0.00 | 0.08 | 0.08 | 78 | 1009.6 |
| 20260506201630 | 2 | 347 | 1.6 | 3.2 | 0.00 | 0.08 | 0.08 | 76 | 1009.8 |
| 20260506201127 | 2 | 337 | 3.2 | 4.8 | 0.00 | 0.08 | 0.08 | 76 | 1009.7 |
| 20260506200623 | 2 | 342 | 3.2 | 3.2 | 0.00 | 0.08 | 0.08 | 75 | 1009.6 |
| 20260506200120 | 3 | 348 | 1.6 | 4.8 | 0.00 | 0.08 | 0.08 | 74 | 1009.5 |
| 20260506195617 | 3 | 56 | 0.0 | 0.0 | 0.00 | 0.08 | 0.08 | 73 | 1009.5 |
| 20260506195113 | 3 | 111 | 0.0 | 4.8 | 0.00 | 0.08 | 0.08 | 72 | 1009.5 |
| 20260506194610 | 3 | 129 | 4.8 | 6.4 | 0.00 | 0.08 | 0.08 | 74 | 1009.4 |
| 20260506194107 | 3 | 118 | 6.4 | 9.7 | 0.00 | 0.08 | 0.08 | 73 | 1009.3 |
| 20260506193605 | 3 | 98 | 3.2 | 4.8 | 0.00 | 0.08 | 0.08 | 74 | 1009.4 |
| 20260506193102 | 3 | 98 | 3.2 | 4.8 | 0.00 | 0.08 | 0.08 | 75 | 1009.5 |
| 20260506192558 | 3 | 133 | 3.2 | 9.7 | 0.00 | 0.08 | 0.08 | 74 | 1009.4 |
| 20260506192054 | 4 | 130 | 8.0 | 11.3 | 0.00 | 0.08 | 0.08 | 74 | 1009.2 |
| 20260506191551 | 4 | 120 | 6.4 | 11.3 | 0.00 | 0.08 | 0.08 | 74 | 1009.4 |
| 20260506191047 | 4 | 79 | 6.4 | 12.9 | 0.00 | 0.08 | 0.08 | 74 | 1009.3 |
| 20260506190544 | 4 | 145 | 9.7 | 11.3 | 0.00 | 0.08 | 0.08 | 73 | 1009.1 |
| 20260506190041 | 4 | 121 | 6.4 | 11.3 | 0.00 | 0.08 | 0.08 | 73 | 1009.2 |
| 20260506185539 | 4 | 126 | 6.4 | 12.9 | 0.00 | 0.08 | 0.08 | 73 | 1009.3 |
| 20260506185035 | 4 | 268 | 4.8 | 6.4 | 0.00 | 0.08 | 0.08 | 72 | 1009.1 |
| 20260506184533 | 4 | 146 | 3.2 | 6.4 | 0.00 | 0.08 | 0.08 | 71 | 1009.1 |
| 20260506184030 | 4 | 170 | 1.6 | 3.2 | 0.00 | 0.08 | 0.08 | 72 | 1009.0 |
| 20260506183525 | 5 | 94 | 1.6 | 4.8 | 0.00 | 0.08 | 0.08 | 72 | 1009.0 |
| 20260506183022 | 5 | 256 | 3.2 | 9.7 | 0.00 | 0.08 | 0.08 | 72 | 1009.0 |
| 20260506182520 | 5 | 160 | 3.2 | 6.4 | 0.00 | 0.08 | 0.08 | 72 | 1009.1 |
| 20260506182017 | 5 | 166 | 8.0 | 9.7 | 0.00 | 0.08 | 0.08 | 71 | 1009.0 |
| 20260506181515 | 5 | 137 | 1.6 | 6.4 | 0.00 | 0.08 | 0.08 | 67 | 1009.1 |
| 20260506181011 | 5 | 195 | 6.4 | 12.9 | 0.00 | 0.08 | 0.08 | 67 | 1009.0 |
| 20260506180508 | 5 | 159 | 3.2 | 11.3 | 0.00 | 0.08 | 0.08 | 67 | 1009.1 |
| 20260506180005 | 5 | 235 | 1.6 | 9.7 | 0.00 | 0.08 | 0.08 | 69 | 1008.9 |
| 20260506175500 | 5 | 263 | 4.8 | 9.7 | 0.00 | 0.08 | 0.08 | 68 | 1009.0 |
| 20260506174957 | 5 | 272 | 9.7 | 12.9 | 0.00 | 0.08 | 0.08 | 65 | 1009.0 |
| 20260506174456 | 5 | 237 | 3.2 | 9.7 | 0.00 | 0.08 | 0.08 | 67 | 1008.9 |
| 20260506173952 | 5 | 262 | 4.8 | 12.9 | 0.00 | 0.08 | 0.08 | 67 | 1008.9 |
| 20260506173449 | 5 | 150 | 6.4 | 12.9 | 0.00 | 0.08 | 0.08 | 67 | 1008.9 |
| 20260506172946 | 5 | 112 | 4.8 | 12.9 | 0.00 | 0.08 | 0.08 | 68 | 1008.9 |
| 20260506172444 | 5 | 357 | 4.8 | 11.3 | 0.00 | 0.08 | 0.08 | 68 | 1008.8 |
| 20260506171940 | 5 | 54 | 3.2 | 11.3 | 0.00 | 0.08 | 0.08 | 69 | 1008.8 |
| 20260506171437 | 5 | 243 | 3.2 | 12.9 | 0.00 | 0.08 | 0.08 | 68 | 1008.8 |
| 20260506170935 | 6 | 215 | 6.4 | 12.9 | 0.00 | 0.08 | 0.08 | 69 | 1008.8 |
| 20260506170431 | 6 | 314 | 6.4 | 12.9 | 0.00 | 0.08 | 0.08 | 66 | 1008.8 |
| 20260506165930 | 6 | 228 | 8.0 | 14.5 | 0.00 | 0.08 | 0.08 | 64 | 1008.7 |
| 20260506165428 | 6 | 116 | 1.6 | 9.7 | 0.00 | 0.08 | 0.08 | 63 | 1008.5 |
| 20260506164924 | 6 | 107 | 3.2 | 12.9 | 0.00 | 0.08 | 0.08 | 63 | 1008.5 |
| 20260506164421 | 6 | 100 | 6.4 | 12.9 | 0.00 | 0.08 | 0.08 | 63 | 1008.5 |
| 20260506163919 | 6 | 188 | 6.4 | 12.9 | 0.00 | 0.08 | 0.08 | 62 | 1008.5 |
| 20260506163414 | 6 | 200 | 4.8 | 12.9 | 0.00 | 0.08 | 0.08 | 63 | 1008.5 |
| 20260506162909 | 6 | 141 | 4.8 | 12.9 | 0.00 | 0.08 | 0.08 | 63 | 1008.6 |
| 20260506162407 | 6 | 108 | 6.4 | 11.3 | 0.00 | 0.08 | 0.08 | 63 | 1008.7 |
| 20260506161904 | 6 | 233 | 1.6 | 9.7 | 0.00 | 0.08 | 0.08 | 63 | 1008.6 |
| 20260506161402 | 6 | 215 | 4.8 | 9.7 | 0.00 | 0.08 | 0.08 | 61 | 1008.5 |
| 20260506160859 | 7 | 285 | 6.4 | 12.9 | 0.00 | 0.08 | 0.08 | 58 | 1008.6 |
| 20260506160355 | 7 | 214 | 6.4 | 14.5 | 0.00 | 0.08 | 0.08 | 60 | 1008.5 |
| 20260506155854 | 7 | 270 | 3.2 | 6.4 | 0.00 | 0.08 | 0.08 | 59 | 1008.3 |
| 20260506155351 | 7 | 198 | 3.2 | 6.4 | 0.00 | 0.08 | 0.08 | 58 | 1008.5 |
| 20260506153508 | 7 | 300 | 3.2 | 4.8 | 0.00 | 0.08 | 0.08 | 59 | 1008.3 |
| 20260506153005 | 6 | 255 | 4.8 | 4.8 | 0.00 | 0.08 | 0.08 | 61 | 1008.3 |
| 20260506152502 | 6 | 253 | 1.6 | 4.8 | 0.00 | 0.08 | 0.08 | 59 | 1008.4 |
| 20260506152000 | 7 | 288 | 3.2 | 11.3 | 0.00 | 0.08 | 0.08 | 59 | 1008.1 |
| 20260506151457 | 7 | 325 | 3.2 | 6.4 | 0.00 | 0.08 | 0.08 | 55 | 1008.1 |
| 20260506150954 | 7 | 280 | 1.6 | 6.4 | 0.00 | 0.08 | 0.08 | 58 | 1008.3 |
| 20260506150450 | 7 | 297 | 3.2 | 6.4 | 0.00 | 0.08 | 0.08 | 58 | 1008.3 |
| 20260506145948 | 7 | 323 | 3.2 | 6.4 | 0.00 | 0.08 | 0.08 | 56 | 1008.2 |
| 20260506145444 | 7 | 257 | 3.2 | 6.4 | 0.00 | 0.08 | 0.08 | 54 | 1007.9 |
| 20260506144942 | 7 | 286 | 6.4 | 9.7 | 0.00 | 0.08 | 0.08 | 57 | 1008.2 |
| 20260506144438 | 7 | 295 | 6.4 | 9.7 | 0.00 | 0.08 | 0.08 | 54 | 1008.1 |
| 20260506143936 | 6 | 308 | 3.2 | 4.8 | 0.00 | 0.08 | 0.08 | 58 | 1008.2 |
| 20260506143433 | 6 | 298 | 3.2 | 6.4 | 0.00 | 0.08 | 0.08 | 60 | 1008.2 |
| 20260506142931 | 7 | 277 | 3.2 | 4.8 | 0.00 | 0.08 | 0.08 | 56 | 1008.1 |